Dodge City, KS

5:29 AM CST on December 10, 2016 (GMT -0600)
Dodge City Regional

Weather History for KDDC - March, 2013

Change the Weather History Date:

Thursday, March 7, 2013

  Actual Average Record
Temperature  
Mean Temperature 51 °F -  
Max Temperature 70 °F 55 °F 85 °F (1879)
Min Temperature 32 °F 28 °F -10 °F (1920)
Degree Days  
Heating Degree Days 14    
Growing Degree Days 1 (Base 50)    
Moisture  
Dew Point 27 °F    
Average Humidity 45    
Maximum Humidity 67    
Minimum Humidity 14    
Precipitation  
Precipitation 0.00 in - - ()
Sea Level Pressure  
Sea Level Pressure 29.95 in    
Wind  
Wind Speed 18 mph (SSE)    
Max Wind Speed 25 mph    
Max Gust Speed 31 mph    
Visibility 10 miles    
Events      
Averages and records for this station are not official NWS values.
T = Trace of Precipitation, MM = Missing Value Source: NWS Daily Summary

Daily Weather History Graph

Daily Weather History Graph

Search for Another Location

Airport or City:

Trip Planner

Search our weather history database for the weather conditions in past years. The results will help you decide how hot, cold, wet, or windy it might be!

Date:

Astronomy

Mar. 07, 2013 Rise Set
Actual Time 7:02 AM CST 6:39 PM CST
Civil Twilight 6:36 AM CST 7:05 PM CST
Nautical Twilight 6:05 AM CST 7:36 PM CST
Astronomical Twilight 5:35 AM CST 8:06 PM CST
Moon 3:59 AM CST (3/7) 2:33 PM CST (3/7)
Length of Visible Light 12h 29m
Length of Day
11h 37m
Waning Crescent, 20% of the Moon is Illuminated
Mar 7
Waning Crescent
Mar 11
New
Mar 19
First Quarter
Mar 27
Full
Apr 2
Last Quarter

Hourly Weather History & Observations

Time (CST) Temp. Windchill Dew Point Humidity Pressure Visibility Wind Dir Wind Speed Gust Speed Precip Events Conditions
12:52 AM 35.1 °F 23.5 °F 24.1 °F 64% 30.02 in 10.0 mi SSE 21.9 mph - N/A   Clear
1:52 AM 34.0 °F 22.7 °F 24.1 °F 67% 30.00 in 10.0 mi SSE 19.6 mph - N/A   Clear
2:52 AM 34.0 °F 22.7 °F 24.1 °F 67% 29.98 in 10.0 mi South 19.6 mph - N/A   Clear
3:52 AM 33.1 °F 21.2 °F 23.0 °F 66% 29.95 in 10.0 mi SSE 20.7 mph - N/A   Clear
4:52 AM 32.0 °F 19.8 °F 21.9 °F 66% 29.95 in 10.0 mi South 20.7 mph - N/A   Clear
5:52 AM 33.1 °F 20.1 °F 21.9 °F 64% 29.94 in 10.0 mi South 25.3 mph 31.1 mph N/A   Clear
6:52 AM 32.0 °F 19.5 °F 21.9 °F 66% 29.95 in 10.0 mi South 21.9 mph - N/A   Clear
7:52 AM 33.1 °F 21.2 °F 21.9 °F 64% 29.96 in 10.0 mi South 20.7 mph - N/A   Clear
8:52 AM 39.2 °F 29.6 °F 21.2 °F 49% 29.94 in 10.0 mi South 19.6 mph - N/A   Clear
9:52 AM 44.1 °F 38.6 °F 23.0 °F 43% 29.99 in 10.0 mi South 10.4 mph - N/A   Clear
10:52 AM 48.9 °F - 25.0 °F 39% 29.97 in 10.0 mi South 13.8 mph - N/A   Clear
11:52 AM 51.1 °F - 26.1 °F 38% 29.98 in 10.0 mi South 8.1 mph 16.1 mph N/A   Clear
12:52 PM 57.0 °F - 28.0 °F 33% 29.96 in 10.0 mi South 11.5 mph - N/A   Clear
1:52 PM 62.1 °F - 28.0 °F 28% 29.93 in 10.0 mi SSE 12.7 mph - N/A   Clear
2:52 PM 66.0 °F - 28.0 °F 24% 29.90 in 10.0 mi South 13.8 mph - N/A   Clear
3:52 PM 69.1 °F - 28.0 °F 22% 29.89 in 10.0 mi SSE 16.1 mph - N/A   Clear
4:52 PM 69.1 °F - 28.0 °F 22% 29.88 in 10.0 mi SSE 18.4 mph - N/A   Clear
5:52 PM 63.0 °F - 30.9 °F 30% 29.90 in 10.0 mi SE 13.8 mph - N/A   Clear
6:52 PM 54.0 °F - 32.0 °F 43% 29.94 in 10.0 mi ESE 9.2 mph - N/A   Clear
7:52 PM 54.0 °F - 30.9 °F 41% 29.96 in 10.0 mi SE 13.8 mph - N/A   Clear
8:52 PM 52.0 °F - 30.9 °F 45% 29.96 in 10.0 mi SE 13.8 mph - N/A   Clear
9:52 PM 46.9 °F - 32.0 °F 56% 29.96 in 10.0 mi SE 13.8 mph - N/A   Clear
10:52 PM 45.0 °F 38.9 °F 30.9 °F 58% 29.95 in 10.0 mi SE 12.7 mph - N/A   Clear
11:52 PM 42.8 °F 36.2 °F 30.2 °F 61% 29.95 in 10.0 mi SE 12.7 mph - N/A   Clear